Other Public Products
Issued by NWS Grand Forks, ND

Home | Current Version | Previous Version | Text Only | Print | Product List | Glossary Off
Versions: 1 2 3 4 5 6 7 8 9 10 11 12 13 14 15 16 17 18 19 20 21 22 23 24 25 26 27 28 29 30 31 32 33 34 35 36 37 38 39 40 41 42 43 44 45 46 47 48 49 50

000
FPUS83 KFGF 270410
OPUFGF
PRAIRIE TO PINES WEATHER ROUNDUP
NATIONAL WEATHER SERVICE EASTERN NORTH DAKOTA/GRAND FORKS ND
1000 PM CST THU FEB 26 2015

 **SATELLITE DATA USED TO AUGMENT SKY COVER AT AUTOMATED STATIONS**
 *****  WEATHER ACROSS EASTERN NORTH DAKOTA  *****

CITY           SKY/WX    TMP DP  RH WIND       PRES   REMARKS
GRAND FORKS    CLEAR     -7 -12  79 W7        30.50F WCI -21
GRAND FORKS AF FAIR      -4 -12  71 NW8       30.50S WCI -19
GRAND CITY NWS   N/A     -4 N/A N/A W5          N/A  WCI -15
BUXTON         NOT AVBL
DEVILS LAKE    PTCLDY   N/A N/A N/A MISG        N/A
FARGO          FAIR      -2 -10  69 W9        30.52S WCI -18
WAHPETON ARPT  CLEAR      0  -8  71 NW9       30.54R WCI -16
$$

 *****  WEATHER ACROSS CENTRAL AND WESTERN NORTH DAKOTA  *****

CITY           SKY/WX    TMP DP  RH WIND       PRES   REMARKS
JAMESTOWN      CLEAR     -8 -14  74 W7        30.47F WCI -23
BISMARCK       CLEAR      0  -8  69 NW3       30.52S
MINOT          CLEAR     -7 -14  71 SW8       30.47F WCI -23
MINOT AFB      CLEAR    -12 -17  77 W10       30.47F WCI -31
GARRISON         N/A    -10 -13  86 CALM      30.47F
WILLISTON      PTCLDY    -9 -14  78 CALM      30.46F
DICKINSON      CLEAR     -3 -10  72 S6        30.39F WCI -15
HETTINGER      CLEAR     -6 -11  79 CALM      30.42F
$$

 *****  OTHER OBSERVATIONS NORTHEAST NORTH DAKOTA  *****

CITY           SKY/WX    TMP DP  RH WIND       PRES   REMARKS
WALHALLA         N/A      1  -8  66 W6        30.46F WCI -10
LANGDON        NOT AVBL
CAVALIER       FAIR       0  -8  71 W9        30.47S WCI -16
GRAFTON        NOT AVBL
CANDO          FAIR      -4 -11  71 W12       30.46S WCI -22
FORT TOTTEN    NOT AVBL
ROLLA          FAIR      -8 -15  71 SW7       30.41S WCI -22
RUGBY          FAIR      -9 -15  77 W8        30.47S WCI -26
 ***** THE ABOVE OBSERVATIONS ARE NON NWS ARE NOT QUALITY
        CONTROLLED AND MAY MIS-REPORT RAIN FOR SNOW...
$$

 *****  OTHER OBSERVATIONS SOUTHEAST NORTH DAKOTA *****

CITY           SKY/WX    TMP DP  RH WIND       PRES   REMARKS
COOPERSTOWN    NOT AVBL
VALLEY CITY    FAIR      -4  -9  77 W9        30.48S WCI -20
OAKES            N/A     -4  -9  77 NW6       30.51S WCI -16
GWINNER        CLEAR     -4 -13  65 W8        30.52S WCI -19
SHEYENNE NWR     N/A     -7 -15  69 NW6       29.95  WCI -20
BUFFALO        NOT AVBL
WYNDMERE         N/A     -4 -11  71 W6          N/A  WCI -16
 ***** THE ABOVE OBSERVATIONS ARE NON NWS ARE NOT QUALITY
       CONTROLLED AND MAY MIS-REPORT RAIN FOR SNOW...
$$

  *****  WEATHER ACROSS NORTHERN MINNESOTA  *****

CITY           SKY/WX    TMP DP  RH WIND       PRES   REMARKS
FLAG ISLAND    CLEAR     -2  -9  71 W6        30.39F WCI -14
WARROAD        CLEAR     -4  -9  77 W7        30.41F WCI -18
ROSEAU         CLEAR      0  -8  71 W6        30.43S WCI -12
HALLOCK        NOT AVBL
THF RVR FALLS  PTCLDY    -6 -17  59 CALM      30.45S
HALSTAD        NOT AVBL
FOSSTON        CLEAR    -13 -18  77 CALM      30.45S
BAUDETTE       CLEAR     -5 -12  72 NW8       30.38S WCI -20
WASKISH        FAIR      -6 -11  77 SW8       30.41S WCI -21
CROOKSTON      FAIR      -8 -13  77 W6        30.50S WCI -21
$$
  *****  WEATHER ACROSS CENTRAL AND WEST MINNESOTA  *****

CITY           SKY/WX    TMP DP  RH WIND       PRES   REMARKS
BEMIDJI        CLEAR     -7 -11  82 W7        30.41S WCI -22
PARK RAPIDS    CLEAR    -10 -15  78 W6        30.41F WCI -23
WADENA         CLEAR     -6  -9  84 W6        30.44F WCI -18
DETROIT LAKES  CLEAR      0  -6  78 W5        30.46S WCI -10
MOORHEAD       FAIR       0  -6  78 W7        30.52S WCI -13
FERGUS FALLS   CLEAR     -2  -9  71 NW8       30.54S WCI -17
ELBOW LAKE     FAIR      -6 -10  83 W7        30.49S WCI -21
MORRIS MN      CLEAR     -6 -11  77 NW8       30.50S WCI -21
STAPLES        CLEAR     -9 -15  77 W5        30.45S WCI -21
WHEATON        CLEAR     -8 -11  84 W8        30.55S WCI -23
$$
  *****  WEATHER ELSEWHERE ACROSS MINNESOTA  *****

CITY           SKY/WX    TMP DP  RH WIND       PRES   REMARKS
DULUTH         CLEAR      0 -14  51 NW10      30.35R WCI -16
INTRNTL FALLS  CLEAR     -6 -14  68 W5        30.38R WCI -17
ELY            CLEAR     -6 -17  59 NW3       30.33S
CLOQUET        CLEAR      0 -15  50 NW9       30.38R WCI -16
BRAINERD       CLEAR     -1 -12  59 NW6       30.45R WCI -13
HIBBING        CLEAR     -2 -14  56 W6        30.37S WCI -14
ALEXANDRIA     CLEAR     -4 -10  75 NW7       30.46R WCI -18
SAINT CLOUD    CLEAR      1  -9  62 NW10      30.47R WCI -15
MINNEAPOLIS    CLEAR      3  -8  60 W8        30.49R WCI -10
$$

  *****  WEATHER ACROSS SOUTH DAKOTA  *****

CITY           SKY/WX    TMP DP  RH WIND       PRES   REMARKS
SIOUX FALLS    CLEAR     -5 -10  79 NW8       30.52S WCI -20
BROOKINGS      NOT AVBL
WATERTOWN      CLEAR     -5 -10  79 NW8       30.47S WCI -20
HURON          PTCLDY   -13 -17  82 W8        30.56S WCI -30
SISSETON         N/A     -4 -10  75 NW9       30.52S WCI -20
ABERDEEN       CLEAR    -10 -15  78 W6        30.55S WCI -23
MITCHELL       CLEAR     -2  -7  79 NW7       30.57S WCI -15
PIERRE         CLEAR     -1  -7  75 NE3       30.52S
MOBRIDGE       CLEAR     -5 -11  75 CALM      30.48S
RAPID CITY     CLEAR     -4 -12  68 NW6       30.38S WCI -16
$$

  *****  SOME WEATHER IN NEARBY STATES *****

CITY           SKY/WX    TMP DP  RH WIND       PRES   REMARKS
GLASGOW MT     CLEAR      4  -5  66 E10       30.36F WCI -11
GREAT FALLS MT CLEAR      7   2  80 E6        30.07F WCI  -3
CHEYENNE WY    LGT SNOW   7   2  80 SE13      30.07F WCI  -9
SCOTTSBLUFF NE CLOUDY     8   0  69 E7        30.30S WCI  -3
OMAHA NE       CLEAR      3  -2  79 NW5       30.59R WCI  -6
DES MOINES IA  CLEAR      2  -6  69 NW5       30.55R WCI  -8
DAVENPORT IA   CLEAR    -10 -17  71 W10       30.49R WCI -29
CHICAGO IL     PTCLDY     3  -8  60 NW9       30.41R WCI -12
EAU CLAIRE WI  CLEAR      0 -11  59 NW6       30.44R WCI -12
LA CROSSE WI   CLEAR      2  -8  63 CALM      30.49R
$$

  *****  SOME NATIONAL WEATHER *****

CITY           SKY/WX    TMP DP  RH WIND       PRES   REMARKS
LA GUARDIA NY  MOCLDY    23  11  60 N5        30.14S WCI  17
RALEIGH NC     MOCLDY    28  27  93 CALM      30.16R FOG
ATLANTA GA     MOCLDY    34  29  82 NW5       30.16R
NEW ORLEANS LA CLOUDY    45  34  65 N18       30.26R
OKLAHOMA CITY  MOCLDY    25   0  33 N12       30.46R WCI  14
ALBUQUERQUE NM CLOUDY    28  19  69 E25       29.97S WCI  13
SALT LAKE CITY MOCLDY    34  30  85 W6        29.91S
LOS ANGELES CA CLEAR     58  53  84 VRB3      29.85F
BOISE ID       CLOUDY    42  34  73 CALM      29.92F
SEATTLE WA     LGT RAIN  50  46  86 NE3       29.92F FOG
$$

*** WEATHER ACROSS MANITOBA...SASKATCHEWAN AND ONTARIO ***
                ***ONTARIO***

CITY           SKY/WX    TMP DP  RH WIND       PRES   REMARKS
GERALDTON      CLEAR     -4 -13  65 W7        30.16S WCI -18
THUNDER BAY    CLEAR      0 -11  60 W9        30.34R WCI -16
SIOUX LOOKOUT  CLEAR     -2 -11  65 W6        30.27F WCI -14
TORONTO        MOCLDY     3  -8  60 NW10      30.27R WCI -12
BIG TROUT LK   PTCLDY     0 -11  60 W9        30.06F WCI -16
PICKLE LAKE    NOT AVBL
DRYDEN         CLEAR     -4 -11  71 W12       30.29F WCI -22
KENORA         CLEAR     -4 -13  65 W7        30.34F WCI -18
$$
                *** MANITOBA***

CITY           SKY/WX    TMP DP  RH WIND       PRES   REMARKS
BRANDON        CLEAR     -9 -15  77 W13       30.44F WCI -30
DAUPHIN        CLEAR      1  -8  66 W20       30.42F WCI -20
ISLAND LAKE    CLEAR      3 -11  51 W9        30.20F WCI -11
PILOT MOUND      N/A     -4  -9  77 W8          N/A  WCI -19
THE PAS        CLOUDY     5 -11  47 SW12      30.30F WCI -11
THOMPSON       MOCLDY     7  -9  47 W10       30.12F WCI  -8
WINNIPEG       CLEAR     -6 -13  71 W6        30.45F WCI -18
LYNN LAKE      MOCLDY     9  -6  52 W16G22    30.07F WCI  -9
CHURCHILL      LGT SNOW   9   3  78 NW18G25   29.88F WCI -10
GILLAM         MOCLDY     9  -8  47 W14G21    30.03F WCI  -8
$$
                ***SASKATCHEWAN***

CITY           SKY/WX    TMP DP  RH WIND       PRES   REMARKS
ESTEVAN        CLEAR    -11 -17  77 SW5       30.44F WCI -23
KINDERSLEY     PTCLDY     0  -8  71 S9        30.23F WCI -16
LLOYDMINSTER   MOCLDY    -2  -9  71 S10       30.20F WCI -19
PRINCE ALBERT  MOCLDY    -8 -13  77 SW6       30.36F WCI -21
REGINA         CLEAR     -9 -13  84 SE7       30.41F WCI -24



USA.gov is the U.S. government's official web portal to all federal, state and local government web resources and services.